EN

Hourly Weather Abryshkino

Today, 13 June, Sunday

Time Temperature Precipitation Wind Pressure Humidity
00:00 +17°C° 0 mm 2 mps 752 mmHg 87%
01:00 +18°C° 0 mm 1 mps 752 mmHg 88%
02:00 +16°C° 0.2 mm 1 mps 752 mmHg 89%
03:00 +16°C° 0.2 mm 2 mps 753 mmHg 90%
04:00 +16°C° 0.2 mm 2 mps 753 mmHg 91%
05:00 +17°C° 0 mm 2 mps 753 mmHg 89%
06:00 +18°C° 0 mm 3 mps 753 mmHg 86%
07:00 +19°C° 0 mm 3 mps 753 mmHg 83%
08:00 +21°C° 0 mm 3 mps 753 mmHg 77%
09:00 +22°C° 0 mm 3 mps 753 mmHg 71%
10:00 +25°C° 0 mm 3 mps 754 mmHg 65%
11:00 +26°C° 0.1 mm 3 mps 753 mmHg 61%
12:00 +27°C° 0.1 mm 3 mps 753 mmHg 57%
13:00 +28°C° 0.1 mm 3 mps 753 mmHg 53%
14:00 +28°C° 0.2 mm 3 mps 753 mmHg 55%
15:00 +27°C° 0.2 mm 3 mps 753 mmHg 56%
16:00 +27°C° 0.2 mm 2 mps 753 mmHg 58%
17:00 +26°C° 0 mm 2 mps 753 mmHg 62%
18:00 +26°C° 0 mm 3 mps 753 mmHg 66%
19:00 +25°C° 0 mm 3 mps 753 mmHg 70%
20:00 +24°C° 0.1 mm 2 mps 753 mmHg 68%
21:00 +23°C° 0.1 mm 2 mps 753 mmHg 67%
22:00 +23°C° 0.1 mm 1 mps 754 mmHg 66%
23:00 +22°C° 0 mm 1 mps 754 mmHg 68%

Tomorrow, 14 June, Monday

Time Temperature Precipitation Wind Pressure Humidity
00:00 +21°C° 0 mm 1 mps 754 mmHg 70%
01:00 +20°C° 0 mm 1 mps 754 mmHg 72%
02:00 +20°C° 0 mm 1 mps 754 mmHg 73%
03:00 +19°C° 0 mm 1 mps 754 mmHg 75%
04:00 +18°C° 0 mm 2 mps 754 mmHg 76%
05:00 +19°C° 0 mm 2 mps 754 mmHg 73%
06:00 +20°C° 0 mm 2 mps 754 mmHg 70%
07:00 +21°C° 0 mm 3 mps 755 mmHg 67%
08:00 +23°C° 0 mm 4 mps 755 mmHg 60%
09:00 +25°C° 0 mm 4 mps 755 mmHg 52%
10:00 +27°C° 0 mm 5 mps 755 mmHg 45%
11:00 +28°C° 0 mm 5 mps 755 mmHg 42%
12:00 +29°C° 0 mm 5 mps 754 mmHg 40%
13:00 +30°C° 0 mm 5 mps 754 mmHg 38%
14:00 +30°C° 0 mm 5 mps 754 mmHg 39%
15:00 +30°C° 0 mm 4 mps 754 mmHg 41%
16:00 +30°C° 0 mm 4 mps 754 mmHg 42%
17:00 +29°C° 0 mm 3 mps 754 mmHg 47%
18:00 +28°C° 0 mm 3 mps 753 mmHg 52%
19:00 +27°C° 0 mm 2 mps 753 mmHg 57%
20:00 +26°C° 0 mm 2 mps 753 mmHg 56%
21:00 +25°C° 0 mm 3 mps 753 mmHg 56%
22:00 +22°C° 0 mm 3 mps 753 mmHg 55%
23:00 +22°C° 0 mm 3 mps 753 mmHg 55%

Day after tomorrow, 15 June, Tuesday

Time Temperature Precipitation Wind Pressure Humidity
00:00 +21°C° 0 mm 3 mps 753 mmHg 54%
01:00 +21°C° 0 mm 3 mps 753 mmHg 54%
02:00 +20°C° 0 mm 2 mps 753 mmHg 58%
03:00 +20°C° 0 mm 2 mps 753 mmHg 62%
04:00 +20°C° 0 mm 1 mps 754 mmHg 66%
05:00 +21°C° 0.1 mm 1 mps 754 mmHg 66%
06:00 +22°C° 0.1 mm 1 mps 754 mmHg 65%
07:00 +23°C° 0.1 mm 1 mps 754 mmHg 65%
08:00 +24°C° 0 mm 2 mps 754 mmHg 64%
09:00 +24°C° 0 mm 2 mps 754 mmHg 63%
10:00 +25°C° 0 mm 2 mps 754 mmHg 62%
11:00 +27°C° 0 mm 2 mps 754 mmHg 55%
12:00 +28°C° 0 mm 2 mps 754 mmHg 49%
13:00 +30°C° 0 mm 2 mps 753 mmHg 43%
14:00 +30°C° 0 mm 3 mps 753 mmHg 41%
15:00 +31°C° 0 mm 3 mps 753 mmHg 39%
16:00 +33°C° 0 mm 3 mps 752 mmHg 37%
17:00 +31°C° 0 mm 3 mps 752 mmHg 44%
18:00 +30°C° 0 mm 2 mps 752 mmHg 50%
19:00 +28°C° 0 mm 2 mps 752 mmHg 57%
20:00 +27°C° 0 mm 2 mps 751 mmHg 56%
21:00 +26°C° 0 mm 2 mps 751 mmHg 56%
22:00 +25°C° 0 mm 2 mps 751 mmHg 55%
23:00 +25°C° 0 mm 2 mps 751 mmHg 54%

16 June, Wednesday

Time Temperature Precipitation Wind Pressure Humidity
00:00 +24°C° 0 mm 1 mps 751 mmHg 54%
01:00 +24°C° 0 mm 1 mps 751 mmHg 53%
02:00 +24°C° 0 mm 2 mps 751 mmHg 52%
03:00 +23°C° 0 mm 2 mps 751 mmHg 51%
04:00 +23°C° 0 mm 2 mps 751 mmHg 51%
05:00 +24°C° 0 mm 3 mps 750 mmHg 52%
06:00 +23°C° 0 mm 4 mps 750 mmHg 53%
07:00 +25°C° 0 mm 5 mps 750 mmHg 54%
08:00 +26°C° 0 mm 5 mps 750 mmHg 51%
09:00 +28°C° 0 mm 6 mps 750 mmHg 48%
10:00 +29°C° 0 mm 7 mps 750 mmHg 44%
11:00 +30°C° 0 mm 7 mps 749 mmHg 44%
12:00 +30°C° 0 mm 7 mps 749 mmHg 43%
13:00 +32°C° 0 mm 7 mps 749 mmHg 43%
14:00 +32°C° 0 mm 6 mps 749 mmHg 42%
15:00 +33°C° 0 mm 6 mps 748 mmHg 41%
16:00 +34°C° 0 mm 5 mps 748 mmHg 40%
17:00 +33°C° 0 mm 5 mps 748 mmHg 47%
18:00 +32°C° 0 mm 4 mps 747 mmHg 53%
19:00 +30°C° 0 mm 4 mps 747 mmHg 60%
20:00 +27°C° 0.2 mm 3 mps 747 mmHg 66%
21:00 +25°C° 0.2 mm 3 mps 748 mmHg 72%
22:00 +22°C° 0.2 mm 3 mps 748 mmHg 79%
23:00 +21°C° 0 mm 3 mps 748 mmHg 82%

17 June, Thursday

Time Temperature Precipitation Wind Pressure Humidity
00:00 +21°C° 0 mm 3 mps 748 mmHg 84%
01:00 +20°C° 0 mm 3 mps 748 mmHg 87%
02:00 +20°C° 0 mm 3 mps 748 mmHg 89%
03:00 +19°C° 0 mm 3 mps 748 mmHg 91%
04:00 +19°C° 0 mm 3 mps 748 mmHg 93%
05:00 +20°C° 0 mm 4 mps 748 mmHg 91%
06:00 +20°C° 0 mm 4 mps 748 mmHg 89%
07:00 +21°C° 0 mm 5 mps 748 mmHg 86%
08:00 +21°C° 0 mm 5 mps 749 mmHg 86%
09:00 +21°C° 0 mm 6 mps 749 mmHg 85%
10:00 +21°C° 0 mm 6 mps 749 mmHg 85%
11:00 +21°C° 0 mm 6 mps 750 mmHg 82%
12:00 +21°C° 0 mm 6 mps 750 mmHg 79%
13:00 +21°C° 0 mm 6 mps 751 mmHg 76%
14:00 +21°C° 0.1 mm 7 mps 751 mmHg 69%
15:00 +22°C° 0.1 mm 7 mps 751 mmHg 61%
16:00 +23°C° 0.1 mm 8 mps 751 mmHg 54%
17:00 +22°C° 0 mm 7 mps 752 mmHg 58%
18:00 +21°C° 0 mm 7 mps 752 mmHg 62%
19:00 +20°C° 0 mm 6 mps 753 mmHg 65%
20:00 +19°C° 0 mm 5 mps 753 mmHg 68%
21:00 +17°C° 0 mm 4 mps 754 mmHg 70%
22:00 +15°C° 0 mm 4 mps 754 mmHg 72%
23:00 +14°C° 0 mm 4 mps 754 mmHg 75%

18 June, Friday

Time Temperature Precipitation Wind Pressure Humidity
00:00 +13°C° 0 mm 3 mps 755 mmHg 79%
01:00 +13°C° 0 mm 3 mps 755 mmHg 82%
02:00 +12°C° 0 mm 3 mps 755 mmHg 81%
03:00 +12°C° 0 mm 3 mps 755 mmHg 81%
04:00 +11°C° 0 mm 3 mps 756 mmHg 81%
05:00 +12°C° 0 mm 4 mps 756 mmHg 73%
06:00 +13°C° 0 mm 4 mps 757 mmHg 65%
07:00 +15°C° 0 mm 5 mps 757 mmHg 58%
08:00 +15°C° 0 mm 6 mps 758 mmHg 52%
09:00 +16°C° 0 mm 6 mps 758 mmHg 46%
10:00 +17°C° 0 mm 7 mps 758 mmHg 41%
11:00 +18°C° 0 mm 7 mps 759 mmHg 39%
12:00 +18°C° 0 mm 7 mps 759 mmHg 38%
13:00 +20°C° 0 mm 6 mps 759 mmHg 37%
14:00 +20°C° 0 mm 6 mps 759 mmHg 38%
15:00 +20°C° 0 mm 6 mps 759 mmHg 39%
16:00 +20°C° 0 mm 6 mps 759 mmHg 40%
17:00 +20°C° 0 mm 5 mps 759 mmHg 46%
18:00 +19°C° 0 mm 5 mps 759 mmHg 51%
19:00 +19°C° 0 mm 4 mps 759 mmHg 57%
20:00 +17°C° 0 mm 4 mps 759 mmHg 62%
21:00 +16°C° 0 mm 3 mps 759 mmHg 67%
22:00 +14°C° 0 mm 2 mps 759 mmHg 73%
23:00 +14°C° 0 mm 2 mps 759 mmHg 73%
Show more